Location: Casteau
(50.5142°N, 4.0161°E)
Time: 03:15:53
(UTC+00:00)

ATLAS 3B R/B - Pass Details

Date: 18 September 2020
Orbit: 1016 x 1179 km, 63.8° (Epoch: 04 October)

Event Time Altitude Azimuth Distance (km) Brightness Sun altitude
Rises 19:29:43 0° 311° (NW) 3,799 7.0 -16.2°
Reaches altitude 10° 19:32:31 10° 319° (NW) 2,862 6.0 -16.6°
Maximum altitude 19:38:49 39° 28° (NNE) 1,554 3.5 -17.5°
Enters shadow 19:42:49 22° 83° (E) 2,205 3.9 -18.1°
